Regional Weather Roundup
Issued by NWS

Home | Current Version | Previous Version | Graphics & Text | Print | Product List | Glossary On
Versions: 1 2 3 4 5 6 7 8 9 10 11 12 13 14 15 16 17 18 19 20 21 22 23 24 25 26 27 28 29 30 31 32 33 34 35 36 37 38 39 40 41 42 43 44 45 46 47 48 49 50
000
ASUS43 KLOT 260103
RWRIL

ILLINOIS REGIONAL WEATHER ROUNDUP
NATIONAL WEATHER SERVICE CHICAGO/ROMEOVILLE IL
800 PM CDT SUN SEP 25 2016

NOTE: "FAIR" INDICATES FEW OR NO CLOUDS BELOW 12,000 FEET WITH NO
SIGNIFICANT WEATHER AND/OR OBSTRUCTIONS TO VISIBILITY.

* THESE STATIONS ARE NOT UNDER NWS QUALITY CONTROL. THEY ALSO MAY NOT
  REPORT WEATHER SUCH AS PRECIPITATION OR FOG.

ILZ001-002-007-009-015-016-024-260200-
NORTHWEST ILLINOIS

CITY           SKY/WX    TMP DP  RH WIND       PRES   REMARKS
MOLINE         CLOUDY    68  52  56 W14       30.02R
STERLING*      CLOUDY    68  57  68 W16G22    29.99R
$$

ILZ003-004-008-010-011-017-018-260200-
NORTH CENTRAL ILLINOIS

CITY           SKY/WX    TMP DP  RH WIND       PRES   REMARKS
ROCKFORD       CLOUDY    72  57  59 W17G31    29.96R
FREEPORT*      CLOUDY    67  55  65 W14       29.99R
ROCHELLE*      CLOUDY    72  64  75 W24       29.96R
$$

ILZ005-006-012>014-019>023-260200-
NORTHEAST ILLINOIS

CITY           SKY/WX    TMP DP  RH WIND       PRES   REMARKS
CHICAGO-OHARE  MOCLDY    74  69  85 CALM      29.90S
CHICAGO-MIDWAY CLOUDY    80  67  64 S7        29.90S HX  82
AURORA         PTCLDY    78  66  66 W15G22    29.92R HX  80
LANSING*       CLEAR     74  70  86 S8        29.92F
WAUKEGAN       PTCLDY    70  69  97 CALM      29.88S
DUPAGE AIRPORT PTCLDY    77  65  66 W10       29.91R
KANKAKEE*      CLEAR     74  68  81 S6        29.94S
WHEELING       PTCLDY    74  71  91 CALM      29.91R
NORTHERLY ISL    N/A     80  65  59 S8          N/A  HX  82
$$

LMZ740>746-260200-
SOUTHERN LAKE MICHIGAN

STATION/POSITION SKY/WX   TEMP    WIND        PRES    VSBY  WAVE
                          AIR SEA DIR/SP/G                  HT/PER
                          (F)     (DEG/KT/KT) (MB)    (MI)  (FT/S)
SOUTHERN BUOY              71 72  250/ 16/ 27 1012.4          2/ 4
WILMETTE HARBOR            67 65   90/  6/  8   N/A           2/ 3
HARRISON CRIB              80     210/ 14/ 14   N/A
BURNHAM HARBOR             79     180/  5/ 11   N/A
CALUMET HARBOR             80     170/  6/ 10 1012.3R
BURNS HARBOR               79     150/  7/ 15 1013.5R
MICHIGAN CITY              76     130/  9/ 10   N/A
MICHIGAN CITY 6N           73 70  160/ 10/ 12   N/A           1
ST. JOSEPH                 74 69  150/ 10/ 12 1012.9R         1
$$

ILZ025>027-034>036-040-047-049-050-058-095>099-260200-
WEST-CENTRAL ILLINOIS

CITY           SKY/WX    TMP DP  RH WIND       PRES   REMARKS
QUINCY         CLOUDY    68  56  65 NW18G26   30.06R
GALESBURG*     PTCLDY    67  55  65 W13G21    30.04R
MACOMB*        CLOUDY    68  55  63 NW17      30.06R
$$

ILZ028>032-037-038-041>044-048-051>054-059>061-260200-
CENTRAL ILLINOIS

CITY           SKY/WX    TMP DP  RH WIND       PRES   REMARKS
BLOOMINGTON    CLOUDY    79  66  64 W15G21    29.98R HX  81
DECATUR        PTCLDY    81  66  60 W6        29.98R HX  83
PEORIA         CLEAR     74  65  73 NW14      29.99R
LINCOLN*       PTCLDY    81  68  65 W5        29.98R HX  83
SPRINGFIELD    CLOUDY    79  66  64 W6        29.99R HX  81
TAYLORVILLE    NOT AVBL
$$

ILZ033-039-045-046-055>057-062-063-260200-
EAST-CENTRAL ILLINOIS

CITY           SKY/WX    TMP DP  RH WIND       PRES   REMARKS
CHAMPAIGN      PTCLDY    75  67  76 S6        29.98R
MATTOON        CLEAR     76  66  71 S5        29.98R
$$

ILZ079-100>102-260200-
SOUTHWEST ILLINOIS

CITY           SKY/WX    TMP DP  RH WIND       PRES   REMARKS
ALTON          CLEAR     73  68  83 CALM      30.00R
BELLEVILLE     CLOUDY    80  69  70 W3        29.98R HX  82
CAHOKIA*       CLOUDY    80  66  62 W3        29.99R HX  82
SPARTA*        CLOUDY    73  70  91 E3        30.01S
$$

ILZ064>066-069>071-074>076-080>082-084>086-088>090-092>094-260200-
SOUTH-CENTRAL ILLINOIS

CITY           SKY/WX    TMP DP  RH WIND       PRES   REMARKS
CARBONDALE     CLEAR     73  70  90 CALM      30.00S
EFFINGHAM*     PTCLDY    76  73  92 CALM      30.01R
MT. VERNON     CLOUDY    77  66  69 CALM      30.01R
CENTRALIA*     PTCLDY    76  69  79 SW5       30.00R
SALEM*         CLOUDY    79  71  76 SW6       30.00R HX  82
METROPOLIS*    CLEAR     77  71  83 CALM      30.01R
$$

ILZ067-068-072-073-078-083-087-091-260200-
SOUTHEAST ILLINOIS

CITY           SKY/WX    TMP DP  RH WIND       PRES   REMARKS
LAWRENCEVILLE  CLEAR     77  68  73 S5        29.99R
FLORA*         CLOUDY    78  72  83 CALM      29.99S HX  80
HARRISBURG*    CLEAR     77  72  85 CALM      30.00R
ROBINSON*      CLEAR     73  68  86 CALM      30.00R
$$

ABBREVIATIONS USED IN REMARKS
   TC - TEMPERATURE IN CELSIUS
  WCI - WIND CHILL INDEX
   HX - HEAT INDEX
  VSB - VISIBILITY
$$





USA.gov is the U.S. government's official web portal to all federal, state and local government web resources and services.